EUTELSAT 65 WEST A      
1 41382U 16014A   19261.11399678 -.00000280  00000-0  00000+0 0  9993
2 41382   0.0609 344.6209 0001777 204.5993 143.3565  1.00269344 12938
ARIANE 5 R/B            
1 41383U 16014B   19260.66522516  .00002509  00000-0  24091-3 0  9997
2 41383   0.5136 290.0667 7065176 187.1842 329.2514  2.58095184 31337